Flag for U.S.A. Weather past 2 weeks in El Paso, Texas, U.S.A.

Now
87 °F

Broken clouds.


Feels Like: 85 °F
Forecast: 75 / 96 °F
Wind: 7 mph from Southwest

Location: El Paso International Airport

Current Time: Aug 27, 2015 at 9:06:21 PM

Latest Report: Aug 27, 2015 at 7:51 PM


Visibility: 10 mi

Pressure: 29.82 "Hg (26.22 "Hg at 1142m altitude)

Humidity: 33%

Dew point: 55 °F

Location of El PasoLocation

Historic Weather in El Paso — Graph

°F

El Paso temperature yesterday

Maximum temperature yesterday: 94 °F (at 2:51 PM)
Minimum temperature yesterday: 75 °F (at 5:51 AM)
Average temperature yesterday: 84 °F

Past Weeks' High & Low Weather Summary

 TemperatureHumidityPressure
High102 °F (Aug 14, 4:51 PM)90% (Aug 24, 4:51 AM)30.01 "Hg (Aug 24, 4:51 AM)
Low68 °F (Aug 24, 6:51 AM)13% (Aug 20, 5:51 PM)29.52 "Hg (Aug 18, 5:51 PM)
Average85 °F38%29.82 "Hg
* Reported Aug 12 7:51 PM — Aug 27 7:51 PM, El Paso, Weather by CustomWeather, © 2015

Note: Actual official high and low records may vary slightly from our data, if they occured in-between our weather recording intervals... More about our weather records

Advertising

El Paso weather history for previous 24 hours

 ConditionsComfort  
Time TempWeatherWind HumidityBarometerVisibility
7:51 PM
Thu, Aug 27
87 °FBroken clouds.7 mph33%29.82 "Hg10 mi
6:51 PM91 °FBroken clouds.3 mph26%29.81 "Hg10 mi
5:51 PM91 °FBroken clouds.5 mph26%29.81 "Hg10 mi
4:51 PM92 °FBroken clouds.6 mph26%29.81 "Hg10 mi
3:51 PM90 °FBroken clouds.13 mph27%29.84 "Hg10 mi
2:51 PM94 °FPartly sunny.3 mph24%29.85 "Hg10 mi
1:51 PM91 °FPartly sunny.3 mph28%29.89 "Hg10 mi
12:51 PM90 °FPartly sunny.7 mph28%29.93 "Hg10 mi
11:51 AM89 °FPartly sunny.3 mph30%29.96 "Hg10 mi
10:51 AM85 °FScattered clouds.5 mph35%29.97 "Hg10 mi
9:51 AM83 °FScattered clouds.No wind38%29.97 "Hg10 mi
8:51 AM81 °FScattered clouds.No wind41%29.97 "Hg10 mi
7:51 AM79 °FScattered clouds.No wind44%29.97 "Hg10 mi
6:51 AM75 °FPassing clouds.5 mph52%29.96 "Hg10 mi
5:51 AM75 °FPassing clouds.6 mph52%29.94 "Hg10 mi
4:51 AM75 °FPassing clouds.7 mph52%29.94 "Hg10 mi
3:51 AM77 °FPassing clouds.9 mph48%29.93 "Hg10 mi
2:51 AM80 °FPartly cloudy.7 mph45%29.93 "Hg10 mi
1:51 AM81 °FPartly cloudy.6 mph41%29.94 "Hg10 mi
12:51 AM82 °FLight rain. Passing clouds.13 mph38%29.92 "Hg10 mi
11:51 PM
Wed, Aug 26
81 °FPassing clouds.7 mph44%29.93 "Hg10 mi
10:51 PM82 °FPassing clouds.5 mph40%29.94 "Hg10 mi
9:51 PM84 °FPartly cloudy.16 mph36%29.92 "Hg10 mi
Weather by CustomWeather, © 2015

See weather overviewHow to use our weather pages